Theta_e
305 304 306 308 311 312 312 313 314 314 314 315 315 316 316 317 318 319 321 321 323 326 328 330 332 334 332 334 338 340 342 342 340 341 339 337 338 340 341 340 337 336 340
305 304 304 306 309 311 311 312 312 313 313 313 314 314 315 316 317 317 318 319 320 322 323 325 327 329 332 331 333 336 340 341 342 342 338 335 332 333 340 340 334 337 340
303 302 301 304 307 309 310 311 311 312 312 313 313 314 314 315 316 317 317 318 318 319 320 321 322 324 329 331 330 331 334 339 338 341 340 337 334 335 332 338 333 333 339
302 301 301 305 307 308 309 310 311 311 312 312 313 313 314 314 315 316 316 316 317 317 318 318 318 320 323 328 330 329 330 333 338 338 339 339 336 334 336 335 334 337 339
301 301 301 305 306 307 308 309 310 311 311 312 313 313 313 313 314 314 314 315 315 316 316 316 316 316 318 323 327 330 329 330 331 336 337 337 338 338 336 338 336 338 339
302 302 302 304 305 307 308 308 309 310 310 312 312 312 312 313 314 314 315 314 314 315 315 315 315 315 315 319 323 327 330 329 328 329 336 338 338 337 338 338 335 337 341
302 302 301 303 304 305 307 307 308 308 309 309 309 310 310 311 311 311 312 312 313 313 313 313 314 313 314 315 319 323 326 328 327 326 328 336 337 337 338 339 338 338 340
302 301 301 301 303 304 305 306 307 307 307 307 308 308 308 308 308 308 309 310 311 311 312 312 312 311 312 312 315 318 321 325 325 324 326 330 335 336 337 339 340 337 340
300 300 301 301 302 302 303 304 305 306 306 306 305 305 305 305 305 306 306 306 307 307 308 309 309 309 310 311 313 314 318 321 323 321 322 325 332 334 336 337 338 341 341
300 300 301 301 302 302 302 303 305 304 303 303 302 302 303 301 300 301 304 304 306 307 307 308 309 310 311 311 311 313 313 316 319 320 319 320 320 332 334 336 336 335 340
300 301 301 301 301 301 301 300 300 300 300 299 299 299 298 298 299 299 301 303 306 306 306 307 307 309 310 311 311 311 311 312 313 317 318 318 317 320 328 330 332 337 338
300 301 301 301 300 299 299 298 298 298 298 298 298 297 298 298 298 299 299 300 301 302 304 304 305 306 307 308 309 309 308 307 308 311 318 316 315 314 315 327 330 331 335
300 300 300 299 298 298 297 298 297 297 298 298 297 297 298 299 299 299 299 298 298 298 299 299 300 302 302 304 304 305 304 304 307 308 316 316 313 312 312 318 327 327 329
299 299 299 298 297 297 297 296 297 297 298 297 298 298 297 299 299 299 298 298 298 298 297 298 299 300 301 302 302 302 303 302 302 303 310 315 312 310 312 314 318 327 327
298 299 298 298 297 297 296 296 297 297 297 298 297 297 297 298 299 299 298 298 298 298 298 298 298 298 299 300 302 302 303 302 302 302 303 310 311 311 311 313 318 323 325
299 298 298 297 296 296 296 296 297 298 298 297 297 297 297 298 298 298 298 298 298 298 298 298 298 297 298 299 300 302 302 302 302 302 302 303 310 309 311 313 315 319 320
298 298 297 297 296 296 296 296 297 297 297 297 296 296 297 298 297 297 298 297 298 298 298 298 298 297 297 298 299 301 302 302 302 302 302 303 309 308 309 312 313 315 315
298 297 297 297 297 296 296 296 297 296 296 295 296 295 297 297 296 297 297 298 297 298 298 298 298 298 298 297 298 300 301 302 302 302 301 302 304 309 308 310 311 312 311
298 297 297 297 296 295 296 296 295 295 295 295 295 296 296 296 296 296 296 296 296 297 297 298 298 298 298 298 298 299 300 300 302 302 302 302 303 308 309 308 309 310 310
297 297 297 297 296 296 296 296 295 295 295 295 295 295 293 294 295 296 295 295 296 297 298 297 298 298 298 298 298 298 298 299 301 303 302 302 303 305 308 308 309 308 308
297 297 296 296 296 296 296 295 295 295 295 294 294 293 293 294 294 293 294 294 295 296 297 297 297 298 298 298 298 298 298 299 299 301 302 302 302 304 306 307 308 306 306
297 296 296 296 296 295 296 295 295 294 294 293 293 292 292 293 293 293 294 295 294 295 296 296 297 297 298 298 298 298 298 299 300 301 302 302 301 303 306 306 306 306 306
297 296 296 296 296 295 295 295 295 294 293 293 293 292 292 292 293 294 294 295 295 294 295 297 297 297 298 298 298 298 299 301 299 303 302 302 302 302 303 306 306 306 305
296 296 296 296 296 296 295 296 296 295 294 294 293 292 292 292 293 294 294 294 294 294 294 296 298 297 297 298 298 298 298 298 299 300 302 302 302 301 301 302 305 305 305
297 296 296 296 296 296 296 296 296 295 295 295 294 293 292 292 293 294 295 294 294 294 294 295 297 297 298 299 298 298 298 298 298 299 298 300 302 302 301 301 303 305 305
296 296 296 296 296 296 296 296 296 296 295 295 294 294 293 293 293 294 294 294 294 293 293 295 297 298 298 298 298 298 298 298 298 299 299 298 298 300 302 302 301 304 304
Wind_Speed
13 14 16 17 22 23 23 24 23 23 24 25 23 22 22 22 22 22 21 21 21 20 20 19 20 19 18 18 17 14 11 12 9 8 9 9 8 7 7 7 7 3 7
13 15 15 17 20 21 21 23 23 24 25 25 26 25 23 22 21 21 21 21 20 20 21 20 20 19 19 18 17 16 13 12 12 10 11 11 11 11 10 9 8 6 5
15 16 17 19 22 23 24 24 25 25 25 26 26 25 25 24 21 21 21 22 22 21 20 21 20 20 19 18 17 16 14 13 13 13 12 12 11 13 11 11 9 9 7
14 15 17 19 21 23 23 25 25 24 25 24 24 24 23 23 25 24 24 23 22 22 21 21 21 21 20 19 18 16 15 13 13 13 14 14 13 16 18 12 11 10 9
15 15 17 18 21 21 24 24 24 25 25 24 24 24 24 24 25 25 25 24 23 23 22 23 22 21 21 20 19 16 16 15 14 13 12 16 18 17 17 14 11 11 9
14 17 18 21 23 24 25 25 25 24 25 24 24 24 24 25 25 25 24 25 25 24 24 24 23 23 22 20 19 18 16 15 15 16 13 17 19 18 17 14 11 10 8
16 18 19 20 21 23 23 24 24 24 26 25 25 25 25 25 25 25 26 26 25 25 24 24 24 25 24 22 20 21 19 17 17 18 17 15 17 22 15 14 13 13 12
18 19 20 20 20 21 22 22 22 22 24 23 24 24 24 24 24 25 24 25 26 25 25 26 27 27 27 24 22 20 21 19 16 18 15 17 21 19 20 15 13 14 12
20 20 21 20 22 21 22 22 21 23 21 22 23 23 23 23 23 22 21 21 21 23 24 26 26 26 27 26 24 22 21 20 19 18 21 15 16 19 16 16 18 13 14
20 21 20 21 22 23 23 21 21 20 22 22 22 21 22 22 22 23 23 20 21 23 25 26 27 26 26 26 26 24 22 23 22 22 21 21 16 13 14 14 16 16 15
21 21 21 23 22 24 23 22 21 22 21 20 22 21 24 22 22 22 22 22 22 21 22 25 27 27 27 27 25 27 25 26 26 25 21 20 20 15 14 12 12 12 14
23 21 22 21 22 23 21 24 22 20 20 21 21 24 23 23 22 22 22 22 22 22 22 20 21 22 24 27 24 23 25 26 26 27 24 20 20 19 13 13 11 11 13
22 22 22 20 23 23 24 23 23 22 20 18 23 24 23 22 24 22 22 22 25 25 27 27 24 24 23 23 25 24 26 25 25 24 24 20 21 18 12 8 14 10 11
22 21 21 22 21 21 21 23 21 21 21 22 25 17 26 22 23 22 22 22 22 24 27 27 27 26 26 26 25 23 23 22 23 22 18 22 16 11 9 10 10 15 9
21 21 23 22 22 21 22 22 21 19 21 21 23 24 27 24 20 20 20 22 22 22 23 26 26 28 28 27 26 23 22 23 24 27 24 17 20 17 12 11 8 9 7
21 20 21 21 21 21 23 22 21 21 20 25 24 26 25 22 22 21 22 24 24 23 22 23 25 26 25 28 26 24 23 23 23 25 26 22 18 15 13 14 12 9 8
19 21 21 21 22 23 23 22 20 22 24 22 26 26 24 22 26 24 21 25 24 25 24 22 22 24 24 26 26 25 25 25 23 24 22 23 19 18 15 16 16 13 9
18 19 21 21 22 24 22 21 21 21 23 26 24 27 24 23 26 25 28 21 25 25 23 22 20 20 21 22 21 24 23 24 24 22 22 23 18 19 17 17 17 15 13
17 18 20 21 23 23 21 20 21 21 24 24 25 25 25 26 30 26 28 28 26 25 24 21 19 17 18 20 20 22 22 23 22 20 20 22 21 16 17 17 17 16 13
18 19 18 20 22 22 20 21 21 21 21 22 24 26 32 28 30 26 29 27 26 25 21 21 19 18 18 18 17 21 26 27 23 21 20 17 16 17 11 15 18 16 12
19 19 19 21 23 23 21 23 23 24 24 27 23 28 30 28 30 29 25 26 24 25 24 20 17 18 17 17 15 14 19 21 25 22 20 21 17 13 19 13 15 12 10
18 19 20 20 22 22 22 22 20 24 23 23 23 26 30 31 28 27 27 22 26 24 22 24 17 14 14 14 5 9 3 8 17 22 21 21 21 18 14 22 19 16 13
18 19 20 20 21 21 23 22 23 23 24 23 24 27 31 29 28 27 26 24 23 24 22 23 19 16 12 9 14 6 3 2 5 14 24 21 17 19 19 15 21 20 18
17 18 19 20 21 21 23 23 23 22 23 24 23 26 31 31 30 27 26 25 26 23 23 24 17 12 11 13 10 13 14 8 3 4 6 18 22 21 19 17 15 19 19
17 18 19 19 20 22 22 22 22 22 22 23 22 23 28 31 31 28 25 27 25 25 22 21 22 15 12 13 11 4 8 9 10 4 4 7 7 21 20 18 16 16 16
17 18 19 20 21 22 22 23 23 24 25 26 28 22 27 29 30 29 30 27 23 22 18 17 18 11 7 3 7 10 7 4 3 2 2 4 6 13 11 19 20 14 16
Wind_Direction
353 359 355 352 353 352 351 350 349 347 345 342 341 339 335 332 329 330 330 331 330 329 329 333 337 339 337 339 343 325 297 298 273 268 262 257 247 237 236 244 244 262 245
350 355 350 349 348 348 347 345 343 341 338 336 334 331 328 326 322 320 320 321 323 323 321 325 322 326 331 330 333 335 321 291 287 264 259 260 256 249 238 238 240 216 205
351 349 347 346 346 347 346 344 341 339 336 332 330 326 323 321 318 315 314 313 313 316 314 317 321 317 318 322 324 322 323 318 282 271 262 260 258 261 244 233 230 217 223
347 348 348 344 344 343 343 341 339 336 334 330 328 325 321 318 317 312 306 304 303 304 306 309 313 316 313 312 316 314 313 313 310 284 262 262 266 264 237 228 231 224 218
347 349 345 342 341 341 341 339 338 336 334 330 325 320 316 313 310 308 305 301 299 297 297 299 303 308 310 304 307 309 306 306 304 290 267 254 248 267 230 218 221 219 226
348 350 345 341 341 340 340 340 339 338 336 331 331 327 321 318 313 306 302 300 299 296 294 293 293 299 303 300 292 301 309 303 296 288 264 261 251 257 234 212 224 218 229
348 352 345 339 337 337 338 338 337 336 335 334 333 331 329 325 319 312 307 301 295 293 291 289 290 292 296 295 292 287 292 307 297 283 270 264 264 250 235 217 219 221 231
355 351 349 342 337 334 333 334 334 333 332 332 333 331 329 328 324 317 311 304 297 292 290 288 287 288 288 289 285 285 281 293 299 282 271 273 264 262 241 225 222 227 231
355 352 349 349 342 337 334 333 333 334 335 335 333 331 328 327 328 326 320 310 302 298 292 287 285 284 283 283 279 279 277 281 291 285 264 275 268 259 252 234 227 223 233
353 354 349 352 347 345 339 336 336 335 334 334 336 334 334 330 327 326 325 321 308 300 294 290 287 283 282 278 274 273 275 276 283 273 279 261 269 246 245 243 236 233 236
353 353 354 352 350 345 342 340 336 334 334 332 337 336 335 333 335 330 327 318 322 312 299 294 291 285 281 278 273 271 271 270 271 267 266 266 254 250 242 248 255 245 243
353 352 353 350 352 344 344 341 340 339 336 339 342 336 332 332 330 331 329 329 319 321 323 310 302 296 284 279 277 269 270 269 262 260 252 257 249 251 258 249 250 248 242
347 353 356 359 354 351 345 343 344 337 335 338 332 328 331 324 326 327 328 328 329 325 324 317 325 320 306 290 269 262 265 267 257 258 249 254 249 248 246 252 239 242 236
351 354 355 356 355 348 343 340 341 339 336 329 331 325 341 321 319 321 327 326 323 322 318 318 319 311 318 304 294 281 275 274 272 268 268 240 232 227 231 240 245 233 228
354 355 353 353 353 351 346 341 340 337 330 343 348 342 336 323 327 318 320 322 318 314 311 309 312 308 303 308 302 290 282 275 269 272 269 260 252 251 239 232 227 196 188
352 357 354 353 354 352 349 344 341 342 350 343 341 335 332 332 333 324 319 322 314 313 305 301 298 305 300 300 306 296 288 278 270 263 264 270 244 234 230 228 219 202 187
352 353 358 353 353 356 351 348 351 347 346 347 342 333 332 334 333 327 317 323 323 313 306 296 289 295 301 293 300 308 289 286 280 272 262 258 240 230 223 223 224 213 203
352 360 356 354 356 357 355 352 351 350 349 345 336 338 334 335 335 335 327 317 323 321 308 298 287 283 290 298 296 300 301 279 276 272 266 263 264 223 220 216 218 216 216
360 3 357 357 359 356 353 351 350 347 345 342 338 337 340 335 334 328 337 328 325 314 314 303 288 280 282 292 296 291 301 309 284 270 265 260 258 234 214 210 208 214 216
5 5 357 356 357 358 353 350 345 344 343 349 347 350 340 338 332 328 334 330 326 318 312 311 296 282 274 276 290 293 291 292 297 275 267 269 261 248 201 209 198 199 203
4 3 359 357 359 357 357 351 351 351 349 347 345 347 341 336 334 333 325 330 330 325 321 293 299 288 278 265 281 288 297 286 285 286 263 263 264 258 233 209 194 204 215
6 360 356 358 0 358 354 350 350 350 345 342 341 345 340 340 339 335 332 325 332 324 312 306 299 288 287 249 262 297 294 296 272 265 263 246 251 254 245 226 231 225 227
6 358 356 358 359 355 354 349 348 350 348 346 344 344 343 341 331 333 331 328 325 329 319 315 304 292 272 257 228 238 295 299 334 245 241 246 235 246 252 234 218 218 223
2 356 355 357 359 355 353 352 351 348 344 342 343 342 343 341 333 327 329 325 328 323 325 323 300 328 270 269 226 239 264 279 323 335 321 243 232 239 250 250 240 221 219
355 356 353 357 356 354 356 355 350 343 341 338 337 336 344 336 335 328 323 326 322 328 321 328 326 318 304 244 211 194 244 271 268 272 302 333 284 230 238 251 254 231 227
353 354 353 358 355 354 357 355 351 349 351 350 343 339 344 340 333 331 328 326 324 327 320 329 329 319 340 219 221 241 239 289 350 326 311 325 311 317 337 244 244 251 229